Location: Highridge
(54.0333°N, 114.1333°W)
Time: 14:40:06
(UTC+00:00)

BlueWalker 3 - Visible Passes

Search period start: 09 June 2023 00:00
Search period end: 19 June 2023 00:00
Orbit: 494 x 513 km, 53.2° (Epoch: 08 June)

Date Brightness Start Highest point End Pass type
(mag) Time Alt. Az. Time Alt. Az. Time Alt. Az.
09 Jun 2.1 05:13:22 10° W 05:17:10 56° SSW 05:20:58 10° ESE visible
09 Jun 3.5 06:52:18 10° W 06:55:10 20° SW 06:56:11 18° SSW visible
10 Jun 3.6 06:31:52 10° W 06:34:41 20° SW 06:36:05 16° S visible
11 Jun 3.6 06:11:25 10° W 06:14:13 19° SW 06:16:00 14° S visible
12 Jun 3.7 05:50:58 10° W 05:53:43 19° SW 05:55:59 12° S visible
13 Jun 3.8 05:30:30 10° W 05:33:13 18° SW 05:35:56 10° S visible
14 Jun 3.8 05:10:02 10° W 05:12:42 18° SW 05:15:23 10° S visible
